Weather in Popovka

Russia / Primorsky Krai     44°26′21″N   131°58′47″E
temp.,
°C
wind,
m/s
gust,
m/s
humid.,
%
clouds,
%
prec.,
mm/h
press.,
hPa
HPBL,
m
7 march, sun
sun701:00−15sw22790 0.0 103520
04:00−15ssw33810 0.0 103330
07:00−16sw23830 0.0 103224
10:00−12ssw24820 0.0 1031192
13:00−7ssw35780 0.0 1028426
16:00−4ssw58780 0.0 1024373
19:00−6ssw47840 0.0 1024125
22:00−8sw44840 0.0 102655
8 march, mon
mon801:00−9wnw33790 0.0 102727
04:00−10wsw22800 0.0 102921
07:00−11wnw11810 0.0 102921
10:00−8se11810 0.0 103052
13:00−4se22780 0.0 1029364
16:00−2sse35840 0.0 1026408
19:00−5s23880 0.0 102621
22:00−6ssw48810 0.0 1026122
9 march, tue
tue901:00−6ssw510870 0.0 1024198
04:00−5ssw613870 0.0 1023252
07:00−4ssw612900 0.0 1020232
10:00−1ssw7138532 0.0 1018358
13:00+1ssw8138751 0.0 1015378
16:00+4w5137929 0.0 1015607
19:00−1wnw6146553 0.1 1018533
22:00−4wnw6156926 0.1 1023648
10 march, wed
wed1001:00−5wnw514740 0.0 1025531
04:00−6wnw49730 0.0 1027185
07:00−7wnw36730 0.0 1029109
10:00−4wnw27660 0.0 1031375
13:000nw24490 0.0 1030820
16:00+1sse234914 0.0 1027564
19:00−2sse366176 0.0 1026125
22:00−2s4105988 0.1 1027294
11 march, thu
thu1101:00−2ssw51070100 0.0 1026273
04:00−3ssw388197 0.1 1025185
07:00−3sw348586 0.0 102673
10:00−1wnw237446 0.0 1027118
13:00+2nne24700 0.0 1028454
16:00+2ne57650 0.0 1027505
19:000ne38710 0.0 1029254
22:00−2nne35650 0.0 1031140